Location: Newark
(40.4667°N, 5.6000°W)
Time: 20:38:36
(UTC+00:00)

Explorer 7 - All Passes

Search period start: 19 November 2019 00:00
Search period end: 29 November 2019 00:00
Orbit: 485 x 680 km, 50.3° (Epoch: 18 November)

Date Brightness Start Highest point End Pass type
(mag) Time Alt. Az. Time Alt. Az. Time Alt. Az.
19 Nov - 00:42:56 10° WSW 00:47:35 67° NNW 00:51:58 10° NE night (unlit)
19 Nov - 02:24:58 10° WNW 02:28:42 25° NNW 02:32:16 10° NE night (unlit)
19 Nov - 04:06:51 10° NW 04:10:17 23° N 04:13:33 10° ENE visible
19 Nov - 05:47:26 10° NW 05:51:30 55° NNE 05:55:19 10° ESE visible
19 Nov - 07:28:32 10° W 07:31:44 24° SW 07:34:49 10° S daylight
19 Nov - 23:07:38 10° SSW 23:12:03 39° SE 23:16:18 10° ENE night (unlit)
20 Nov - 00:48:07 10° WSW 00:52:37 47° NNW 00:56:53 10° NE night (unlit)
20 Nov - 02:30:23 10° WNW 02:33:56 23° N 02:37:20 10° NE night (unlit)
20 Nov - 04:11:53 10° NW 04:15:30 26° NNE 04:18:58 10° ENE visible
20 Nov - 05:52:22 10° NW 05:56:31 85° NE 06:00:23 10° ESE visible
20 Nov - 07:34:23 10° W 07:36:27 14° SW 07:38:28 10° SSW daylight
20 Nov - 21:35:51 10° SE 21:36:58 11° SE 21:38:05 10° ESE night (unlit)
20 Nov - 23:12:13 10° SW 23:16:56 62° SE 23:21:25 10° ENE night (unlit)
21 Nov - 00:53:26 10° W 00:57:44 36° NNW 01:01:47 10° NE night (unlit)
21 Nov - 02:35:44 10° NW 02:39:12 22° N 02:42:31 10° NE night (unlit)
21 Nov - 04:16:50 10° NW 04:20:42 32° NNE 04:24:21 10° E visible
21 Nov - 05:57:23 10° WNW 06:01:27 59° SW 06:05:15 10° SE visible
21 Nov - 21:38:24 10° S 21:41:41 18° SE 21:44:53 10° E night (unlit)
21 Nov - 23:17:04 10° SW 23:21:52 87° NNW 23:26:26 10° NE night (unlit)
22 Nov - 00:58:50 10° WNW 01:02:54 29° NNW 01:06:44 10° NE night (unlit)
22 Nov - 02:40:57 10° NW 02:44:28 22° N 02:47:49 10° ENE night (unlit)
22 Nov - 04:21:44 10° NW 04:25:50 43° NNE 04:29:40 10° E visible
22 Nov - 06:02:33 10° WNW 06:06:17 34° SW 06:09:49 10° SSE visible
22 Nov - 21:42:17 10° SSW 21:46:27 29° SE 21:50:29 10° ENE night (unlit)
22 Nov - 23:22:08 10° WSW 23:26:52 60° NNW 23:31:22 10° NE night (unlit)
23 Nov - 01:04:16 10° WNW 01:08:06 25° N 01:11:45 10° NE night (unlit)
23 Nov - 02:46:03 10° NW 02:49:43 25° N 02:53:11 10° ENE night (unlit)
23 Nov - 04:26:39 10° NW 04:30:54 64° NNE 04:34:51 10° ESE visible
23 Nov - 06:07:58 10° W 06:11:02 21° SW 06:13:59 10° S visible
23 Nov - 21:46:38 10° SSW 21:51:16 46° SE 21:55:44 10° ENE night (unlit)
23 Nov - 23:27:22 10° W 23:31:56 44° NNW 23:36:16 10° NE night (unlit)
24 Nov - 01:09:39 10° WNW 01:13:20 23° N 01:16:52 10° NE night (unlit)
24 Nov - 02:51:03 10° NW 02:54:55 29° NNE 02:58:35 10° ENE night (unlit)
24 Nov - 04:31:37 10° WNW 04:35:52 83° SW 04:39:51 10° SE visible
24 Nov - 06:14:09 10° WSW 06:15:43 12° SW 06:17:17 10° SSW visible
24 Nov - 20:13:51 10° SSE 20:16:08 13° SE 20:18:23 10° E night (unlit)
24 Nov - 21:51:19 10° SW 21:56:09 72° SE 22:00:48 10° ENE night (unlit)
24 Nov - 23:32:43 10° W 23:37:03 34° NNW 23:41:12 10° NE night (unlit)
25 Nov - 01:14:57 10° NW 01:18:36 23° N 01:22:05 10° NE night (unlit)
25 Nov - 02:56:00 10° NW 03:00:06 36° NNE 03:03:57 10° E night (unlit)
25 Nov - 04:36:40 10° WNW 04:40:46 50° SW 04:44:37 10° SE visible
25 Nov - 20:17:09 10° S 20:20:51 22° SE 20:24:29 10° E night (unlit)
25 Nov - 21:56:15 10° WSW 22:01:07 78° NNW 22:05:47 10° NE night (unlit)
25 Nov - 23:38:07 10° WNW 23:42:14 28° NNW 23:46:10 10° NE night (unlit)
26 Nov - 01:20:09 10° NW 01:23:52 24° N 01:27:24 10° ENE night (unlit)
26 Nov - 03:00:55 10° NW 03:05:12 50° NNE 03:09:13 10° ESE night (unlit)
26 Nov - 04:41:52 10° WNW 04:45:35 30° SW 04:49:06 10° SSE visible
26 Nov - 20:21:13 10° SSW 20:25:37 34° SE 20:29:55 10° ENE visible
26 Nov - 22:01:22 10° WSW 22:06:08 55° NNW 22:10:43 10° NE night (unlit)
26 Nov - 23:43:32 10° WNW 23:47:27 25° N 23:51:13 10° NE night (unlit)
27 Nov - 01:25:13 10° NW 01:29:06 27° NNE 01:32:46 10° ENE night (unlit)
27 Nov - 03:05:50 10° NW 03:10:14 74° NNE 03:14:21 10° ESE night (unlit)
27 Nov - 04:47:24 10° W 04:50:18 18° SW 04:53:06 10° S visible
27 Nov - 20:25:41 10° SW 20:30:27 53° SE 20:35:06 10° ENE visible
27 Nov - 22:06:37 10° W 22:11:13 41° NNW 22:15:38 10° NE night (unlit)
27 Nov - 23:48:53 10° WNW 23:52:42 24° N 23:56:21 10° NE night (unlit)
28 Nov - 01:30:12 10° NW 01:34:18 32° NNE 01:38:10 10° E night (unlit)
28 Nov - 03:10:49 10° WNW 03:15:12 72° SW 03:19:17 10° SE night (unlit)
28 Nov - 04:54:12 10° WSW 04:54:58 10° SW 04:55:43 10° SW night (unlit)
28 Nov - 18:52:20 10° SSE 18:55:16 16° SE 18:58:11 10° E visible
28 Nov - 20:30:27 10° SW 20:35:21 81° SE 20:40:09 10° ENE visible
28 Nov - 22:11:59 10° W 22:16:21 33° NNW 22:20:34 10° NE night (unlit)
